Flag for U.S.A. Weather past 2 weeks in Chula Vista, California, U.S.A.

Now
67 °F

Low clouds.


Feels Like: 67 °F
Forecast: 65 / 78 °F
Wind: 3 mph from Southwest

Location: Brown Field Municipal Airport

Current Time: Aug 2, 2015 at 9:43:54 AM

Latest Report: Aug 2, 2015 at 8:53 AM


Visibility: 7 mi

Pressure: 29.93 "Hg

Humidity: 90%

Dew point: 64 °F

Location of Chula VistaLocation

Historic Weather in Chula Vista — Graph

°F

Chula Vista temperature yesterday

Maximum temperature yesterday: 76 °F (at 12:53 PM)
Minimum temperature yesterday: 66 °F (at 8:53 PM)
Average temperature yesterday: 70 °F

Past Weeks' High & Low Weather Summary

 TemperatureHumidityPressure
High89 °F (Jul 19, 11:53 AM)100% (Jul 20, 9:53 PM)30.06 "Hg (Jul 20, 9:53 PM)
Low61 °F (Jul 28, 3:53 AM)46% (Jul 18, 3:53 PM)29.84 "Hg (Jul 22, 5:53 PM)
Average72 °F78%29.95 "Hg
* Reported Jul 18 7:53 AM — Aug 2 7:53 AM, Chula Vista, Weather by CustomWeather, © 2015

Note: Actual official high and low records may vary slightly from our data, if they occured in-between our weather recording intervals... More about our weather records

Advertising

Chula Vista weather history for previous 24 hours

 ConditionsComfort  
Time TempWeatherWind HumidityBarometerVisibility
7:53 AM
Sun, Aug 2
67 °FLow clouds.3 mph87%29.91 "Hg9 mi
6:53 AM67 °FLow clouds.5 mph87%29.90 "Hg9 mi
6:04 AM67 °FLow clouds.No wind87%29.90 "Hg10 mi
5:53 AM67 °FOvercast.No wind87%29.89 "Hg10 mi
4:53 AM67 °FOvercast.No wind85%29.86 "Hg10 mi
3:53 AM67 °FOvercast.No wind85%29.87 "Hg10 mi
2:53 AM67 °FOvercast.No wind87%29.88 "Hg10 mi
1:53 AM68 °FOvercast.No wind84%29.90 "Hg10 mi
12:53 AM68 °FOvercast.No wind82%29.91 "Hg10 mi
11:53 PM
Sat, Aug 1
68 °FOvercast.No wind84%29.92 "Hg9 mi
10:53 PM67 °FOvercast.3 mph87%29.92 "Hg10 mi
9:53 PM67 °FOvercast.3 mph87%29.93 "Hg10 mi
8:53 PM66 °FPassing clouds.5 mph87%29.91 "Hg10 mi
7:53 PM67 °FSunny.6 mph85%29.90 "Hg10 mi
6:53 PM71 °FSunny.5 mph73%29.90 "Hg10 mi
5:53 PM73 °FSunny.9 mph71%29.89 "Hg10 mi
4:53 PM75 °FSunny.10 mph66%29.90 "Hg10 mi
3:53 PM76 °FSunny.7 mph67%29.91 "Hg10 mi
2:53 PM76 °FSunny.8 mph67%29.92 "Hg10 mi
1:53 PM76 °FScattered clouds.10 mph67%29.93 "Hg10 mi
12:53 PM76 °FSunny.8 mph64%29.94 "Hg10 mi
11:53 AM75 °FScattered clouds.3 mph69%29.96 "Hg10 mi
10:53 AM72 °FOvercast.5 mph76%29.97 "Hg10 mi
9:53 AM70 °FOvercast.No wind81%29.98 "Hg10 mi
Weather by CustomWeather, © 2015

See weather overviewHow to use our weather pages